Simultaneous Nadir Overpasses (SNOs) Predictions

Prediction of SNOs between TERRA and METOP-C Satellite Orbit:

Table of predicted SNOs for the next 14.0 days since TLE Epoch: 7/25/2020
Index Date (TERRA) Time (TERRA) Lat,Lon (TERRA) SZA (TERRA ) Date (METOP-C) Time (METOP-C) Lat,Lon (METOP-C) SZA (METOP-C ) Distance(km) Time Diff (sec)
1 07/26/2020 21:05:57 81.32, -88.85 64.90 07/26/2020 21:05:14 81.31, -88.90 64.87 1.02 43
2 07/26/2020 21:55:24 -81.31, 78.69 115.11 07/26/2020 21:55:54 -81.31, 78.57 115.11 2.13 30
3 07/29/2020 16:40:13 81.30, -22.68 65.51 07/29/2020 16:39:36 81.31, -22.78 65.49 1.65 37
4 07/29/2020 17:29:39 -81.32, 145.26 114.44 07/29/2020 17:30:15 -81.31, 145.07 114.45 3.29 36
5 08/01/2020 12:14:28 81.31, 43.82 66.22 08/01/2020 12:13:57 81.31, 43.72 66.20 1.73 31
6 08/01/2020 13:03:54 -81.32,-148.21 113.73 08/01/2020 13:04:35 -81.32,-148.05 113.69 2.73 41
7 08/04/2020 07:48:42 81.31, 110.28 66.96 08/04/2020 07:48:17 81.31, 110.20 66.94 1.44 25
8 08/04/2020 08:38:09 -81.31, -82.10 113.03 08/04/2020 08:38:56 -81.32, -81.96 112.99 2.65 47
9 08/07/2020 03:22:57 81.31, 176.71 67.74 08/07/2020 03:22:38 81.31, 176.66 67.73 0.84 19



Historial Predications of SNOs between TERRA and METOP-C
